Location: Bazinghen
(50.8246°N, 1.6616°E)
Time: 06:25:48
(UTC+00:00)

SL-16 R/B - Pass Details

Date: 09 April 2020
Orbit: 985 x 1007 km, 99.5° (Epoch: 29 May)

Event Time Altitude Azimuth Distance (km) Brightness Sun altitude
Exits shadow 23:48:39 19° 89° (E) 2,215 4.3 -31.1°
Maximum altitude 23:51:24 25° 54° (NE) 1,901 4.3 -31.1°
Drops below altitude 10° 23:56:17 10° 2° (N) 2,775 5.8 -31.1°
Sets 23:59:10 0° 350° (N) 3,724 6.6 -31.1°
